[[{"header":{"parameterUnit":"m.s-1","parameterCategory":1,"la1":30.2992,"la2":30.254,"lo1":-89.0895,"lo2":-89.0443,"dy":0.0025,"dx":0.0025,"nx":19,"ny":19,"refTime":"2026-03-31T09:00:00:Z","depth":0,"parameterNumber":2,"parameterNumberName":"U-component_of_WINDS"},"data":[0,0,0,-3.6279,-3.6283,-3.6439,-3.644,-3.6638,-3.664,0,0,0,0,0,0,0,0,0,0,0,-3.6231,-3.6233,-3.6279,-3.6283,-3.6439,-3.644,-3.6638,-3.664,0,0,0,0,0,0,0,0,0,0,0,-3.6231,-3.6232,-3.6234,-3.6284,-3.6439,-3.644,-3.6637,-3.652,0,0,0,0,0,0,0,0,0,0,-3.6368,-3.6322,-3.6232,-3.6234,-3.6284,-3.6439,-3.644,-3.6514,-3.6527,-3.6566,0,-3.66,0,-3.6623,-3.6653,-3.6654,0,0,0,-3.6284,-3.6312,-3.6355,-3.6234,-3.6286,-3.6439,-3.6369,-3.6522,-3.6536,-3.6583,-3.6603,-3.661,-3.6626,-3.6654,-3.6655,-3.6875,-3.6876,0,0,-3.6275,-3.6259,-3.6345,-3.6365,-3.634,-3.6364,-3.6374,-3.6531,-3.6551,-3.6604,-3.6615,-3.663,-3.6655,-3.6657,-3.6874,-3.6875,0,0,0,-3.625,-3.6252,-3.6292,-3.6356,-3.6385,-3.6369,-3.638,-3.6544,-3.6558,-3.6617,-3.6632,-3.6657,-3.6659,-3.6873,-3.6874,-3.6905,0,0,0,-3.6245,-3.6238,-3.6289,-3.628,-3.6382,-3.6466,-3.639,-3.6547,-3.6566,-3.6631,-3.6657,-3.6661,-3.6872,-3.6874,-3.6901,-3.6921,0,0,0,-3.6222,-3.6235,-3.6257,-3.6279,-3.6345,-3.6464,-3.6488,-3.6552,-3.6575,-3.6654,-3.6661,-3.6871,-3.6873,-3.6899,-3.6916,-3.6973,0,0,0,-3.6192,-3.6282,-3.6257,-3.6364,-3.6344,-3.6482,-3.6487,-3.6591,-3.6662,-3.6658,-3.6872,-3.6874,-3.6898,-3.6914,-3.697,-3.7015,-3.7033,0,0,-3.6296,-3.6294,-3.6358,-3.6341,-3.6479,-3.646,-3.6603,-3.6685,-3.6708,-3.6818,-3.6824,-3.6902,-3.6916,-3.6972,-3.7144,-3.7158,0,0,0,-3.6385,-3.6431,-3.6471,-3.6539,-3.6604,-3.6661,-3.6722,-3.6753,-3.6847,-3.6761,-3.694,-3.6948,-3.6982,-3.7004,-3.7016,-3.7045,-3.6884,-3.6884,-3.6884,-3.6506,-3.6532,-3.6639,-3.6684,-3.6749,-3.6813,-3.6868,-3.692,-3.6926,-3.6969,-3.7,-3.7101,-3.7127,-3.7136,-3.7166,-3.7029,-3.7029,-3.7029,-3.7029,-3.6659,-3.6727,-3.6735,-3.6841,-3.6868,-3.6958,-3.7023,-3.7025,-3.7113,-3.7079,-3.711,-3.7069,-3.7151,-3.7179,-3.7031,-3.7031,-3.7031,-3.703,-3.703,-3.6739,-3.6776,-3.6812,-3.6913,-3.6988,-3.7031,-3.7114,-3.7136,-3.7158,-3.7188,-3.7224,-3.7223,-3.7224,-3.7204,-3.7205,-3.7205,-3.7205,-3.7205,-3.7206,-3.6807,-3.6847,-3.6914,-3.6992,-3.7038,-3.7102,-3.7168,-3.7215,-3.7272,-3.7281,-3.7282,-3.7283,-3.7155,-3.7121,-3.7211,-3.721,-3.7209,-3.7209,-3.7209,-3.6948,-3.692,-3.7024,-3.707,-3.7164,-3.7236,-3.7264,-3.7357,-3.7399,-3.744,-3.7437,-3.7339,-3.7338,-3.7329,-3.73,-3.7431,-3.7431,-3.7431,-3.7431,-3.7013,-3.7016,-3.7127,-3.72,-3.7275,-3.7311,-3.7428,-3.7482,-3.7532,-3.756,-3.7545,-3.751,-3.75,-3.7505,-3.7492,-3.7466,-3.7636,-3.7636,-3.7636,-3.7101,-3.7112,-3.7206,-3.7255,-3.733,-3.7394,-3.7505,-3.7589,-3.7641,-3.7645,-3.7581,-3.7573,-3.7518,-3.7499,-3.7497,-3.7477,-3.7429,0,0]},{"header":{"parameterUnit":"m.s-1","parameterCategory":1,"la1":30.2992,"la2":30.254,"lo1":-89.0895,"lo2":-89.0443,"dy":0.0025,"dx":0.0025,"nx":19,"ny":19,"refTime":"2026-03-31T09:00:00:Z","depth":0,"parameterNumber":3,"parameterNumberName":"V-component_of_WINDS"},"data":[0,0,0,3.048,3.0482,3.0563,3.0564,3.0667,3.0668,0,0,0,0,0,0,0,0,0,0,0,3.0457,3.0458,3.048,3.0482,3.0563,3.0564,3.0667,3.0668,0,0,0,0,0,0,0,0,0,0,0,3.0457,3.0458,3.0459,3.0483,3.0563,3.0564,3.0667,3.0605,0,0,0,0,0,0,0,0,0,0,3.0526,3.0506,3.0458,3.0459,3.0483,3.0563,3.0564,3.0602,3.0609,3.0631,0,3.0651,0,3.0662,3.0675,3.0676,0,0,0,3.0481,3.0501,3.0522,3.0459,3.0484,3.0563,3.0526,3.0606,3.0614,3.064,3.0653,3.0657,3.0663,3.0676,3.0676,3.081,3.0811,0,0,3.0476,3.0472,3.0517,3.0527,3.0516,3.0524,3.0529,3.0611,3.0624,3.0653,3.0659,3.0665,3.0677,3.0677,3.081,3.0811,0,0,0,3.0464,3.0469,3.0488,3.0523,3.0538,3.0526,3.0532,3.062,3.0627,3.066,3.0666,3.0677,3.0678,3.0809,3.081,3.0842,0,0,0,3.0462,3.0462,3.0486,3.0484,3.0536,3.058,3.054,3.0622,3.0631,3.0666,3.0677,3.0679,3.0808,3.081,3.0839,3.0857,0,0,0,3.0451,3.046,3.0473,3.0484,3.0519,3.0579,3.0591,3.0624,3.0635,3.0676,3.068,3.0808,3.0809,3.0837,3.0853,3.0892,0,0,0,3.0439,3.0497,3.0473,3.0541,3.0518,3.0599,3.059,3.0649,3.0688,3.0678,3.0808,3.081,3.0836,3.0851,3.089,3.0925,3.0939,0,0,3.051,3.0506,3.0546,3.0527,3.0611,3.0586,3.0674,3.0713,3.0719,3.0779,3.0783,3.084,3.0853,3.0892,3.1018,3.1029,0,0,0,3.0568,3.0597,3.062,3.0658,3.0691,3.072,3.0746,3.0761,3.0813,3.075,3.0864,3.0872,3.0895,3.0912,3.0921,3.0942,3.0817,3.0817,3.0817,3.0662,3.067,3.0738,3.0756,3.0793,3.0821,3.0852,3.0876,3.087,3.0897,3.0915,3.0991,3.1011,3.1018,3.1039,3.0934,3.0934,3.0934,3.0934,3.0768,3.0811,3.0806,3.0871,3.0879,3.0932,3.0961,3.0956,3.1007,3.0978,3.0998,3.0966,3.103,3.1049,3.0937,3.0936,3.0936,3.0936,3.0935,3.0831,3.0853,3.0872,3.093,3.0973,3.0989,3.1039,3.1043,3.1047,3.1068,3.1088,3.1087,3.1088,3.1077,3.1077,3.1078,3.1078,3.1078,3.1078,3.0889,3.0909,3.0952,3.0994,3.102,3.1055,3.1085,3.111,3.1139,3.1139,3.1139,3.1132,3.1035,3.1011,3.1082,3.1082,3.1081,3.1081,3.108,3.0995,3.0972,3.1038,3.1065,3.1115,3.1159,3.1165,3.1217,3.1238,3.1263,3.1252,3.118,3.1175,3.1167,3.1148,3.125,3.125,3.125,3.125,3.1048,3.1047,3.1117,3.116,3.1202,3.1215,3.1289,3.1313,3.1334,3.1348,3.1334,3.1308,3.13,3.13,3.1289,3.1271,3.1402,3.1403,3.1403,3.1114,3.1118,3.1181,3.1203,3.1244,3.1278,3.1348,3.1397,3.1415,3.1409,3.1359,3.1353,3.1311,3.1297,3.1289,3.1273,3.1239,0,0]}]]